This is the latest recevied weather packets stored in our database for station/object JA7ZQY-10. If no packets are shown the sender has not sent any weather packets the latest 10 day(s).
| Time | Temp. | Humidity | Pressure | Rain* | Wind** | Luminosity | Snow |
|---|---|---|---|---|---|---|---|
| 1777968289 | 17.78° C | 43% | 1016.9 hPa | 0 mm | - | - | - |
| 1777967690 | 17.78° C | 43% | 1016.9 hPa | 0 mm | - | - | - |
| 1777967090 | 18.33° C | 43% | 1016.7 hPa | 0 mm | - | - | - |
| 1777966490 | 17.78° C | 42% | 1016.8 hPa | 0 mm | - | - | - |
| 1777965889 | 18.33° C | 42% | 1016.8 hPa | 0 mm | - | - | - |
| 1777965290 | 18.33° C | 41% | 1016.8 hPa | 0 mm | - | - | - |
| 1777964691 | 18.33° C | 41% | 1016.6 hPa | 0 mm | - | - | - |
| 1777964090 | 18.33° C | 41% | 1016.6 hPa | 0 mm | - | - | - |
| 1777963489 | 18.33° C | 41% | 1016.7 hPa | 0 mm | - | - | - |
| 1777962890 | 18.33° C | 41% | 1016.5 hPa | 0 mm | - | - | - |
| 1777962289 | 18.33° C | 40% | 1016.6 hPa | 0 mm | - | - | - |
| 1777961690 | 18.33° C | 40% | 1016.4 hPa | 0 mm | - | - | - |
| 1777961091 | 18.33° C | 40% | 1016.5 hPa | 0 mm | - | - | - |
| 1777960491 | 18.33° C | 40% | 1016.6 hPa | 0 mm | - | - | - |
| 1777959890 | 18.89° C | 40% | 1016.3 hPa | 0 mm | - | - | - |
| 1777959290 | 18.89° C | 37% | 1016.6 hPa | 0 mm | - | - | - |
| 1777958691 | 19.44° C | 36% | 1016.8 hPa | 0 mm | - | - | - |
| 1777958091 | 18.89° C | 37% | 1016.9 hPa | 0 mm | - | - | - |
| 1777957490 | 18.89° C | 36% | 1016.8 hPa | 0 mm | - | - | - |
| 1777956890 | 18.33° C | 34% | 1016.6 hPa | 0 mm | - | - | - |
| 1777956291 | 19.44° C | 35% | 1016.6 hPa | 0 mm | - | - | - |
| 1777955690 | 19.44° C | 32% | 1016.7 hPa | 0 mm | - | - | - |
| 1777955090 | 18.89° C | 31% | 1016.6 hPa | 0 mm | - | - | - |
| 1777954490 | 19.44° C | 32% | 1016.3 hPa | 0 mm | - | - | - |
| 1777953891 | 18.89° C | 35% | 1016.8 hPa | 0 mm | - | - | - |
* Rain latest hour (hover to see other rain measurements)
** Current wind speed in m/s (hover to see current wind gust speed)